#timestamp,LO_Frequency,Hit,StdDev 
1507186815.2,286046996.3,N
1507186835.9,286046990.1,Y
1507186855.7,286046999.3,P
1507186875.6,286046997.5,P
1507186895.4,286046996.8,P
1507186915.2,286046995.0,Y
1507186935.1,286046996.2,P
1507186936.0,286046996.2,P
1507186955.8,286046997.0,P
1507186975.6,286046997.7,N
1507186995.5,286046996.9,Y
1507187015.3,286047003.0,P
1507187035.1,286047003.9,N
1507187055.9,286047004.1,N
1507187075.7,286047005.5,N
1507187095.5,286047002.3,N
1507187115.4,286047004.1,N
1507187135.2,286047003.0,N
1507187155.0,286046999.8,N
1507187155.9,286046999.8,N
1507187175.8,286047000.6,N
1507187195.6,286046999.2,N
1507187215.4,286046999.2,N
1507187235.2,286046996.6,N
1507187255.1,286046997.1,N
1507187256.0,286046997.1,N
1507187275.8,286047000.1,N
1507187295.6,286047004.4,N
1507187315.5,286047002.2,N
1507187335.3,286047005.7,N
1507187355.1,286047002.6,N
1507187375.9,286047000.0,N
1507187395.7,286046998.5,N
1507187415.5,286046999.6,N
1507187435.4,286046993.7,N
1507187455.2,286046995.7,N
1507187475.0,286046995.4,N
1507187475.9,286046995.4,N
1507187495.8,286046999.6,N
1507187515.6,286046995.5,N
1507187535.4,286046992.6,N
1507187555.2,286046990.2,N
1507187575.1,286046992.9,N
1507187576.0,286046992.9,N
1507187595.8,286046992.0,N
1507187615.6,286046993.0,N
1507187635.5,286046992.0,N
1507187655.3,286046996.2,N
1507187675.1,286046994.5,N
1507187695.9,286046992.0,N
1507187715.7,286046993.6,N
1507187735.5,286046993.7,N
1507187755.4,286046995.7,N
1507187775.2,286046996.2,N
1507187795.0,286046997.9,N
1507187795.9,286046997.9,N
1507187815.8,286046995.9,N
1507187835.6,286046998.9,N
1507187855.4,286047001.0,N
1507187875.3,286046999.8,N
1507187895.1,286046998.4,N
1507187896.0,286046998.4,N
1507187915.8,286046996.2,N
1507187935.7,286046992.3,N
1507187955.5,286046992.1,N
1507187975.3,286046995.4,N
1507187995.1,286046996.1,N
1507188015.9,286046996.2,N
1507188035.7,286046994.4,N
1507188055.5,286046995.9,N
1507188075.4,286046998.0,N
1507188095.2,286046995.6,N
1507188115.0,286046993.7,N
1507188115.9,286046993.7,N
1507188135.8,286046993.9,N
1507188155.6,286046996.8,N
1507188175.4,286046997.7,N
1507188195.3,286046995.3,N
1507188215.1,286046998.2,N
1507188216.0,286046998.2,N
1507188235.8,286047000.4,N
1507188255.7,286047000.6,N
1507188275.5,286047000.8,N
1507188295.3,286046998.2,N
1507188315.2,286046998.3,N
1507188335.9,286046999.2,N
1507188355.7,286047000.5,N
1507188375.5,286047000.6,N
1507188395.4,286046998.8,N
1507188415.2,286047000.8,N
1507188435.0,286046999.0,N
1507188435.9,286046999.0,N
1507188455.8,286046997.1,N
1507188475.6,286046995.1,N
1507188495.4,286046998.7,N
1507188515.3,286046997.9,N
1507188535.1,286047000.0,N
1507188555.8,286047002.7,N
1507188575.7,286047003.1,N
1507188595.5,286047001.5,N
1507188615.3,286046999.8,N
1507188635.2,286047002.0,N
1507188655.9,286047003.2,N
1507188675.7,286047000.1,N
1507188695.6,286047000.0,N
1507188715.4,286047002.8,N
1507188735.2,286047003.3,N
1507188755.0,286047004.5,N
1507188756.0,286047004.5,N
1507188775.8,286047004.0,N
1507188795.6,286047001.1,N
1507188815.4,286047000.2,N
1507188835.3,286047001.4,N
1507188855.1,286046998.6,N
1507188875.8,286046997.2,N
1507188895.7,286046996.9,N
1507188915.5,286047000.1,N
1507188935.3,286047002.1,N
1507188955.2,286047000.1,N
1507188975.9,286046997.9,N
1507188995.7,286046995.0,N
1507189015.6,286046997.0,N
1507189035.4,286046998.7,N
1507189055.2,286046996.5,N
1507189075.0,286046996.9,N
1507189076.0,286046996.9,N
1507189095.8,286047002.8,N
1507189115.6,286047002.1,N
1507189135.4,286046998.2,N
1507189155.3,286046998.5,N
1507189175.1,286046996.7,N
1507189195.8,286046992.1,N
1507189215.7,286046992.2,N
1507189235.5,286046993.6,N
1507189255.3,286046990.6,N
1507189275.2,286046987.1,Y
1507189295.0,286046993.2,P
1507189295.9,286046993.2,N
1507189315.7,286046993.0,N
1507189335.6,286046992.0,Y
1507189355.4,286046997.8,P
1507189375.2,286046998.8,N
1507189395.1,286047001.2,N
1507189396.0,286047001.2,N
1507189415.8,286046997.7,N
1507189435.6,286046997.3,N
1507189455.5,286046996.7,N
1507189475.3,286046999.3,N
1507189495.1,286047000.9,N
1507189515.9,286047002.3,N
1507189535.7,286047004.1,N
1507189555.5,286047003.3,N
1507189575.4,286047002.4,N
1507189595.2,286047000.5,N
1507189615.0,286046998.5,N
1507189615.9,286046998.5,N
1507189635.8,286046998.2,N
1507189655.6,286046998.9,N
1507189675.4,286046996.3,N
1507189695.2,286046995.9,N
1507189715.1,286046995.7,N
1507189716.0,286046995.7,N
1507189735.8,286046994.7,N
1507189755.6,286046990.7,Y
1507189775.5,286046990.5,P
1507189795.3,286046994.1,N
1507189815.1,286046992.0,N
1507189835.9,286046992.7,N
1507189855.7,286046989.2,Y
1507189875.5,286046997.3,P
1507189895.4,286046995.8,N
1507189915.2,286046993.1,P
1507189935.0,286046991.9,Y
1507189935.9,286046991.9,P
1507189955.8,286047000.2,N
1507189975.6,286047001.4,N
1507189995.4,286047001.5,N
1507190015.3,286046999.8,N
1507190035.1,286047000.9,N
1507190055.8,286047002.0,N
1507190075.7,286047002.2,N
1507190095.5,286047005.2,N
1507190115.3,286047005.4,N
1507190135.2,286047001.3,N
1507190155.9,286047004.7,N
1507190175.7,286047008.3,N
1507190195.6,286047009.2,N
1507190215.4,286047006.9,N
1507190235.2,286047006.6,N
1507190255.0,286047005.5,N
1507190255.9,286047005.5,N
1507190275.8,286047007.4,N
1507190295.6,286047005.2,N
1507190315.4,286047006.2,N
1507190335.3,286047009.2,N
1507190355.1,286047008.1,N
1507190375.8,286047008.4,N
1507190395.7,286047006.2,N
